Madison, SD

11:19 AM CDT on March 28, 2017 (GMT -0500)
Madison Municipal

Weather History for KMDS - January, 2013

Change the Weather History Date:

Wednesday, January 23, 2013

  Actual Average Record
Temperature  
Mean Temperature 5 °F -  
Max Temperature 14 °F 26 °F 37 °F (2015)
Min Temperature -4 °F 5 °F -14 °F (2011)
Degree Days  
Heating Degree Days 60    
Moisture  
Dew Point 4 °F    
Average Humidity 89    
Maximum Humidity 100    
Minimum Humidity 67    
Precipitation  
Precipitation 0.00 in - - ()
Sea Level Pressure  
Sea Level Pressure 30.27 in    
Wind  
Wind Speed 11 mph (NNW)    
Max Wind Speed 21 mph    
Max Gust Speed 29 mph    
Visibility 10 miles    
Events      
Averages and records for this station are not official NWS values.
T = Trace of Precipitation, MM = Missing Value Source: NWS Daily Summary

Daily Weather History Graph

Daily Weather History Graph

Search for Another Location

Airport or City:

Trip Planner

Search our weather history database for the weather conditions in past years. The results will help you decide how hot, cold, wet, or windy it might be!

Date:

Astronomy

Jan. 23, 2013 Rise Set
Actual Time 7:54 AM CST 5:26 PM CST
Civil Twilight 7:22 AM CST 5:58 PM CST
Nautical Twilight 6:47 AM CST 6:33 PM CST
Astronomical Twilight 6:13 AM CST 7:07 PM CST
Moon 2:36 PM CST (1/23) 5:08 AM CST (1/23)
Length of Visible Light 10h 35m
Length of Day
9h 32m
Waxing Gibbous, 89% of the Moon is Illuminated
Jan 23
Waxing Gibbous
Jan 26
Full
Feb 3
Last Quarter
Feb 10
New
Feb 17
First Quarter

Hourly Weather History & Observations

Time (CST) Temp. Windchill Dew Point Humidity Pressure Visibility Wind Dir Wind Speed Gust Speed Precip Events Conditions
12:00 AM 14.0 °F 0.5 °F 14.0 °F 100% 30.09 in 10.0 mi SSW 11.5 mph - N/A   Overcast
12:20 AM 12.2 °F -1.0 °F 12.2 °F 100% 30.10 in 10.0 mi SSW 10.4 mph - N/A   Mostly Cloudy
12:40 AM 10.4 °F 2.2 °F 10.4 °F 100% 30.10 in 10.0 mi SW 4.6 mph - N/A   Partly Cloudy
1:00 AM 10.4 °F 0.8 °F 10.4 °F 100% 30.09 in 10.0 mi SW 5.8 mph - N/A   Mostly Cloudy
1:20 AM 10.4 °F 0.8 °F 10.4 °F 100% 30.09 in 10.0 mi SW 5.8 mph - N/A   Mostly Cloudy
1:40 AM 8.6 °F 0.1 °F 8.6 °F 100% 30.09 in 10.0 mi WSW 4.6 mph - N/A   Partly Cloudy
2:00 AM 8.6 °F 0.1 °F 8.6 °F 100% 30.09 in 10.0 mi West 4.6 mph - N/A   Clear
2:20 AM 8.6 °F - 8.6 °F 100% 30.10 in 10.0 mi Calm Calm - N/A   Scattered Clouds
2:40 AM 6.8 °F -2.0 °F 6.8 °F 100% 30.10 in 10.0 mi WNW 4.6 mph - N/A   Partly Cloudy
3:00 AM 8.6 °F -1.3 °F 8.6 °F 100% 30.09 in 10.0 mi WNW 5.8 mph - N/A   Clear
3:20 AM 6.8 °F -5.9 °F 6.8 °F 100% 30.10 in 10.0 mi WNW 8.1 mph - N/A   Clear
3:40 AM 6.8 °F -3.5 °F 6.8 °F 100% 30.09 in 10.0 mi WNW 5.8 mph - N/A   Clear
4:00 AM 6.8 °F -4.8 °F 6.8 °F 100% 30.09 in 10.0 mi WNW 6.9 mph - N/A   Clear
4:20 AM 6.8 °F -6.9 °F 6.8 °F 100% 30.09 in 10.0 mi WNW 9.2 mph - N/A   Clear
4:40 AM 6.8 °F -5.9 °F 6.8 °F 100% 30.09 in 10.0 mi WNW 8.1 mph - N/A   Clear
5:00 AM 6.8 °F -6.9 °F 6.8 °F 100% 30.09 in 10.0 mi WNW 9.2 mph - N/A   Clear
5:20 AM 6.8 °F -6.9 °F 6.8 °F 100% 30.09 in 10.0 mi WNW 9.2 mph - N/A   Clear
5:40 AM 8.6 °F -4.7 °F 8.6 °F 100% 30.10 in 10.0 mi WNW 9.2 mph - N/A   Clear
6:00 AM 8.6 °F -5.5 °F 8.6 °F 100% 30.11 in 10.0 mi WNW 10.4 mph - N/A   Clear
6:20 AM 8.6 °F -4.7 °F 8.6 °F 100% 30.12 in 10.0 mi WNW 9.2 mph - N/A   Clear
6:40 AM 8.6 °F -5.5 °F 8.6 °F 100% 30.13 in 10.0 mi WNW 10.4 mph - N/A   Clear
7:00 AM 8.6 °F -4.7 °F 8.6 °F 100% 30.14 in 10.0 mi WNW 9.2 mph - N/A   Scattered Clouds
7:20 AM 8.6 °F -4.7 °F 8.6 °F 100% 30.15 in 10.0 mi WNW 9.2 mph - N/A   Scattered Clouds
7:40 AM 8.6 °F -3.7 °F 8.6 °F 100% 30.15 in 10.0 mi NW 8.1 mph - N/A   Mostly Cloudy
8:00 AM 8.6 °F -4.7 °F 8.6 °F 100% 30.16 in 10.0 mi WNW 9.2 mph - N/A   Scattered Clouds
8:20 AM 8.6 °F -5.5 °F 8.6 °F 100% 30.17 in 10.0 mi WNW 10.4 mph - N/A   Clear
8:40 AM 8.6 °F -4.7 °F 8.6 °F 100% 30.17 in 10.0 mi NW 9.2 mph - N/A   Clear
9:00 AM 10.4 °F -4.1 °F 10.4 °F 100% 30.19 in 10.0 mi NNW 11.5 mph - N/A   Scattered Clouds
9:20 AM 10.4 °F -6.6 °F 10.4 °F 100% 30.21 in 10.0 mi North 16.1 mph - N/A   Scattered Clouds
9:40 AM 10.4 °F -7.2 °F 10.4 °F 100% 30.22 in 10.0 mi North 17.3 mph - N/A   Partly Cloudy
10:00 AM 10.4 °F -5.4 °F 8.6 °F 92% 30.23 in 10.0 mi North 13.8 mph - N/A   Partly Cloudy
10:20 AM 10.4 °F -6.0 °F 8.6 °F 92% 30.24 in 10.0 mi North 15.0 mph - N/A   Partly Cloudy
10:40 AM 10.4 °F -7.2 °F 8.6 °F 92% 30.25 in 10.0 mi North 17.3 mph - N/A   Partly Cloudy
11:00 AM 10.4 °F -6.6 °F 8.6 °F 92% 30.27 in 10.0 mi North 16.1 mph 20.7 mph N/A   Clear
11:20 AM 10.4 °F -7.2 °F 6.8 °F 85% 30.29 in 10.0 mi North 17.3 mph - N/A   Clear
11:40 AM 10.4 °F -6.6 °F 8.6 °F 92% 30.29 in 10.0 mi North 16.1 mph - N/A   Clear
12:00 PM 10.4 °F -8.6 °F 6.8 °F 85% 30.29 in 10.0 mi North 20.7 mph - N/A   Clear
12:20 PM 10.4 °F -7.2 °F 6.8 °F 85% 30.29 in 10.0 mi NNW 17.3 mph 21.9 mph N/A   Clear
12:40 PM 12.2 °F -5.3 °F 6.8 °F 79% 30.30 in 10.0 mi North 18.4 mph 23.0 mph N/A   Clear
1:00 PM 10.4 °F -7.7 °F 5.0 °F 79% 30.30 in 10.0 mi North 18.4 mph - N/A   Clear
1:20 PM 10.4 °F -8.2 °F 5.0 °F 79% 30.30 in 10.0 mi NNW 19.6 mph - N/A   Clear
1:40 PM 10.4 °F -7.7 °F 1.4 °F 67% 30.30 in 10.0 mi North 18.4 mph - N/A   Clear
2:00 PM 8.6 °F -9.5 °F 1.4 °F 73% 30.31 in 10.0 mi NNW 17.3 mph - N/A   Clear
2:20 PM 8.6 °F -9.5 °F 1.4 °F 73% 30.31 in 10.0 mi North 17.3 mph 21.9 mph N/A   Clear
2:40 PM 8.6 °F -11.0 °F 1.4 °F 73% 30.32 in 10.0 mi North 20.7 mph 25.3 mph N/A   Partly Cloudy
3:00 PM 8.6 °F -11.0 °F -0.4 °F 67% 30.33 in 10.0 mi North 20.7 mph 28.8 mph N/A   Clear
3:20 PM 6.8 °F -12.4 °F -0.4 °F 72% 30.34 in 10.0 mi North 18.4 mph - N/A   Clear
3:40 PM 6.8 °F -10.0 °F 1.4 °F 79% 30.36 in 10.0 mi North 13.8 mph - N/A   Scattered Clouds
4:00 PM 6.8 °F -11.8 °F -0.4 °F 72% 30.38 in 10.0 mi North 17.3 mph - N/A   Scattered Clouds
4:20 PM 5.0 °F -13.0 °F -0.4 °F 78% 30.39 in 10.0 mi North 15.0 mph - N/A   Scattered Clouds
4:40 PM 5.0 °F -13.6 °F -0.4 °F 78% 30.40 in 10.0 mi North 16.1 mph - N/A   Mostly Cloudy
5:00 PM 3.2 °F -15.9 °F -0.4 °F 85% 30.40 in 10.0 mi North 16.1 mph - N/A   Mostly Cloudy
5:20 PM 3.2 °F -15.3 °F -0.4 °F 85% 30.42 in 10.0 mi North 15.0 mph - N/A   Mostly Cloudy
5:40 PM 1.4 °F -18.2 °F -0.4 °F 92% 30.41 in 10.0 mi North 16.1 mph - N/A   Mostly Cloudy
6:00 PM 1.4 °F -17.6 °F -2.2 °F 85% 30.42 in 10.0 mi North 15.0 mph - N/A   Partly Cloudy
6:20 PM 1.4 °F -16.9 °F -0.4 °F 92% 30.42 in 10.0 mi NNE 13.8 mph - N/A   Partly Cloudy
6:40 PM 1.4 °F -17.6 °F -2.2 °F 85% 30.44 in 10.0 mi North 15.0 mph - N/A   Scattered Clouds
7:00 PM 1.4 °F -17.6 °F -2.2 °F 85% 30.44 in 10.0 mi North 15.0 mph - N/A   Mostly Cloudy
7:20 PM -0.4 °F -19.2 °F -2.2 °F 92% 30.44 in 10.0 mi NNE 13.8 mph - N/A   Mostly Cloudy
7:40 PM -0.4 °F -16.7 °F -4.0 °F 85% 30.46 in 10.0 mi NNE 10.4 mph - N/A   Mostly Cloudy
8:00 PM -0.4 °F -18.4 °F -2.2 °F 92% 30.47 in 10.0 mi NE 12.7 mph - N/A   Mostly Cloudy
8:20 PM -0.4 °F -18.4 °F -4.0 °F 85% 30.47 in 10.0 mi NE 12.7 mph - N/A   Scattered Clouds
8:40 PM -0.4 °F -17.6 °F -5.8 °F 78% 30.46 in 10.0 mi NE 11.5 mph - N/A   Clear
9:00 PM -2.2 °F -19.9 °F -7.6 °F 78% 30.47 in 10.0 mi NNE 11.5 mph - N/A   Clear
9:20 PM -2.2 °F -18.0 °F -7.6 °F 78% 30.48 in 10.0 mi NE 9.2 mph - N/A   Clear
9:40 PM -2.2 °F -19.9 °F -9.4 °F 71% 30.48 in 10.0 mi NNE 11.5 mph - N/A   Clear
10:00 PM -2.2 °F -18.9 °F -9.4 °F 71% 30.50 in 10.0 mi NNE 10.4 mph - N/A   Mostly Cloudy
10:20 PM -4.0 °F -23.0 °F -9.4 °F 78% 30.50 in 10.0 mi NNE 12.7 mph - N/A   Overcast
10:40 PM -4.0 °F -24.5 °F -9.4 °F 78% 30.48 in 10.0 mi NE 15.0 mph - N/A   Mostly Cloudy
11:00 PM -4.0 °F -23.0 °F -11.2 °F 71% 30.49 in 10.0 mi NE 12.7 mph - N/A   Partly Cloudy
11:40 PM -4.0 °F -22.1 °F - N/A% 30.49 in 10.0 mi NE 11.5 mph - N/A   Partly Cloudy